COSMOS 1997

Satellite information

Favourite Embed

Satellite Type and Status

PAYLOADIN ORBIT

Key statistics

Satellite COSMOS 1997 at a glance.

Uptime

13415

Days in orbit

Revolutions

≈ 12.6

Per day

Orbit

LEO

Low Earth Orbit

Inclination

82.6

Latest

Satellite identification and parameters

Extended collection of information and parameters for COSMOS 1997.

Object identification

Identified? True

Debris? False

Object name: COSMOS 1997

International designator: 1989-009D

Object number (NORAD): 19788

Object ID (CCSDS): 19788

Country: COMMONWEALTH OF INDEPENDENT STATES (CIS)

Current information (Y/N): Y

RCS size: LARGE

Orbital parameters

Period: 113.953 minutes

Inclination: 82.6175 deg

SMA: 7785.915 km

Apoapsis: 1415.588 km

Periapsis: 1399.971 km

RAAN: 145.0573 deg

Eccentricy: 0.0010029

Argument of periapsis: 135.5289 deg

Mean anomaly: 39.8385 deg

Mean motion: 12.63683398 rev/day

Mean motion (dot): 0.00000039 rev/day2

B* drag term: 0.00015285 1/REarth

Two-line elements (TLE)

Creation date: Nov. 2, 2025, 3:56 p.m.

Reference frame: TEME

Reference center: EARTH

Epoch: Nov. 2, 2025, 8:31 a.m. UTC

TLE line 0: 0 COSMOS 1997

TLE line 1: 1 19788U 89009D 25306.35508953 .00000039 00000-0 15285-3 0 9999

TLE line 2: 2 19788 82.6175 145.0573 0010029 135.5289 39.8385 12.63683398693850

Live tracking on map

Real-time ground track for satellite COSMOS 1997.

In-orbit conjunctions

There are no conjunctions computed for COSMOS 1997, at the moment. Check back to stay up to date, as we update our databases every day.

Go to all conjunctions

Associated space launch

Film-return reconnaissance satellite

COSMOS 1997 was lifted into orbit during the mission ‘Soyuz U | Zenit-8 76’, on board a Soyuz U space rocket.

The launch took place on Feb. 10, 1989, 4:55 p.m. from 41/1.

For more information about the launch, click the button.

Launch to space Soyuz U | Zenit-8 76
Soyuz U | Zenit-8 76

Agency: N/A

Status: Launch Successful

Launch date: Feb. 10, 1989, 4:55 p.m. UTC

Rocket: Soyuz U

Launch pad: 41/1

Location: Plesetsk Cosmodrome, Russian Federation

...

Latest news about this satellite

There are no fresh news available about this satellite. Check back as we update our databases every day.


Newsletter sign-up

Weekly statistics, charts and insights to help you stay on top of the space industry.